| time (UTC) | temp F | wind direction | speed MPH | gust MPH | rain 1hr in | rain 24hr in | rain mn in | humidity % | barometer mb |
| 20260510085701 | 67 | 143 | 3.0 | 8.0 | 0.00 | 0.00 | 0.00 | 45 | 1011.8 |
| 20260510085158 | 68 | 147 | 0.0 | 7.0 | 0.00 | 0.00 | 0.00 | 46 | 1011.8 |
| 20260510084704 | 67 | 162 | 1.0 | 7.0 | 0.00 | 0.00 | 0.00 | 46 | 1011.8 |
| 20260510084204 | 66 | 116 | 3.0 | 9.0 | 0.00 | 0.00 | 0.00 | 46 | 1011.8 |
| 20260510083701 | 67 | 143 | 4.0 | 6.0 | 0.00 | 0.00 | 0.00 | 46 | 1012.1 |
| 20260510083201 | 66 | 121 | 2.0 | 9.0 | 0.00 | 0.00 | 0.00 | 47 | 1012.1 |
| 20260510082658 | 66 | 137 | 4.0 | 9.0 | 0.00 | 0.00 | 0.00 | 47 | 1012.1 |
| 20260510082204 | 65 | 100 | 3.0 | 8.0 | 0.00 | 0.00 | 0.00 | 48 | 1012.1 |
| 20260510081701 | 65 | 124 | 2.0 | 9.0 | 0.00 | 0.00 | 0.00 | 49 | 1012.1 |
| 20260510081158 | 64 | 164 | 2.0 | 8.0 | 0.00 | 0.00 | 0.00 | 49 | 1012.1 |
| 20260510080658 | 63 | 172 | 3.0 | 8.0 | 0.00 | 0.00 | 0.00 | 50 | 1012.1 |
| 20260510080158 | 64 | 184 | 4.0 | 9.0 | 0.00 | 0.00 | 0.00 | 49 | 1012.1 |
| 20260510075658 | 63 | 130 | 3.0 | 12.0 | 0.00 | 0.00 | 0.00 | 51 | 1012.5 |
| 20260510075201 | 63 | 167 | 5.0 | 12.0 | 0.00 | 0.00 | 0.00 | 50 | 1012.1 |
| 20260510074658 | 62 | 185 | 4.0 | 8.0 | 0.00 | 0.00 | 0.00 | 51 | 1012.5 |
| 20260510074207 | 62 | 176 | 4.0 | 8.0 | 0.00 | 0.00 | 0.00 | 50 | 1012.5 |
| 20260510073701 | 62 | 180 | 3.0 | 10.0 | 0.00 | 0.00 | 0.00 | 51 | 1012.1 |
| 20260510073201 | 62 | 121 | 2.0 | 7.0 | 0.00 | 0.00 | 0.00 | 53 | 1012.5 |
| 20260510072701 | 61 | 175 | 4.0 | 7.0 | 0.00 | 0.00 | 0.00 | 52 | 1012.5 |
| 20260510072204 | 61 | 164 | 4.0 | 8.0 | 0.00 | 0.00 | 0.00 | 52 | 1012.5 |
| 20260510071658 | 61 | 185 | 4.0 | 10.0 | 0.00 | 0.00 | 0.00 | 53 | 1012.5 |
| 20260510071158 | 61 | 171 | 2.0 | 7.0 | 0.00 | 0.00 | 0.00 | 53 | 1012.5 |
| 20260510070658 | 61 | 169 | 2.0 | 8.0 | 0.00 | 0.00 | 0.00 | 54 | 1012.5 |
| 20260510070201 | 60 | 184 | 4.0 | 8.0 | 0.00 | 0.00 | 0.00 | 55 | 1012.5 |
| 20260510065701 | 60 | 187 | 2.0 | 7.0 | 0.00 | 0.00 | 0.00 | 55 | 1012.5 |
| 20260510065158 | 59 | 175 | 3.0 | 6.0 | 0.00 | 0.00 | 0.00 | 55 | 1012.5 |
| 20260510064658 | 59 | 170 | 3.0 | 8.0 | 0.00 | 0.00 | 0.00 | 56 | 1012.5 |
| 20260510064158 | 59 | 178 | 2.0 | 6.0 | 0.00 | 0.00 | 0.00 | 55 | 1012.9 |
| 20260510063704 | 59 | 123 | 1.0 | 6.0 | 0.00 | 0.00 | 0.00 | 55 | 1012.9 |
| 20260510063158 | 60 | 187 | 1.0 | 4.0 | 0.00 | 0.00 | 0.00 | 55 | 1012.9 |
| 20260510062701 | 60 | 125 | 2.0 | 4.0 | 0.00 | 0.00 | 0.00 | 55 | 1012.9 |
| 20260510062158 | 60 | 175 | 0.0 | 2.0 | 0.00 | 0.00 | 0.00 | 56 | 1012.9 |
| 20260510061658 | 60 | 114 | 0.0 | 2.0 | 0.00 | 0.00 | 0.00 | 57 | 1012.9 |
| 20260510061201 | 59 | 86 | 1.0 | 2.0 | 0.00 | 0.00 | 0.00 | 58 | 1012.9 |
| 20260510060658 | 58 | 88 | 0.0 | 1.0 | 0.00 | 0.00 | 0.00 | 60 | 1012.9 |
| 20260510060158 | 58 | 108 | 1.0 | 1.0 | 0.00 | 0.00 | 0.00 | 60 | 1013.2 |
| 20260510055658 | 57 | 194 | 0.0 | 2.0 | 0.00 | 0.00 | 0.00 | 64 | 1013.2 |
| 20260510055201 | 55 | 56 | 0.0 | 2.0 | 0.00 | 0.00 | 0.00 | 67 | 1013.2 |
| 20260510054704 | 53 | 31 | 0.0 | 2.0 | 0.00 | 0.00 | 0.00 | 72 | 1013.2 |
| 20260510054204 | 51 | 225 | 0.0 | 1.0 | 0.00 | 0.00 | 0.00 | 78 | 1013.2 |
| 20260510053701 | 50 | 336 | 0.0 | 2.0 | 0.00 | 0.00 | 0.00 | 79 | 1013.2 |
| 20260510053158 | 50 | 310 | 0.0 | 4.0 | 0.00 | 0.00 | 0.00 | 79 | 1013.2 |
| 20260510052658 | 50 | 315 | 2.0 | 4.0 | 0.00 | 0.00 | 0.00 | 79 | 1013.2 |
| 20260510052158 | 50 | 300 | 1.0 | 3.0 | 0.00 | 0.00 | 0.00 | 78 | 1013.2 |
| 20260510051707 | 50 | 318 | 1.0 | 3.0 | 0.00 | 0.00 | 0.00 | 79 | 1013.2 |
| 20260510051158 | 50 | 302 | 0.0 | 2.0 | 0.00 | 0.00 | 0.00 | 80 | 1013.2 |
| 20260510050701 | 50 | 263 | 0.0 | 1.0 | 0.00 | 0.00 | 0.00 | 80 | 1013.2 |
| 20260510050207 | 49 | 292 | 0.0 | 1.0 | 0.00 | 0.00 | 0.00 | 81 | 1013.2 |
| 20260510045658 | 49 | 317 | 0.0 | 2.0 | 0.00 | 0.00 | 0.00 | 82 | 1013.2 |
| 20260510045158 | 49 | 306 | 0.0 | 2.0 | 0.00 | 0.00 | 0.00 | 82 | 1013.2 |
| 20260510044658 | 48 | 324 | 1.0 | 2.0 | 0.00 | 0.00 | 0.00 | 83 | 1013.2 |
| 20260510044201 | 48 | 293 | 0.0 | 1.0 | 0.00 | 0.00 | 0.00 | 85 | 1013.2 |
| 20260510043658 | 48 | 226 | 0.0 | 1.0 | 0.00 | 0.00 | 0.00 | 85 | 1013.2 |
| 20260510043201 | 47 | 202 | 1.0 | 1.0 | 0.00 | 0.00 | 0.00 | 86 | 1013.2 |
| 20260510042707 | 47 | 253 | 0.0 | 2.0 | 0.00 | 0.00 | 0.00 | 87 | 1013.5 |
| 20260510042204 | 46 | 306 | 1.0 | 2.0 | 0.00 | 0.00 | 0.00 | 87 | 1013.5 |
| 20260510041701 | 46 | 268 | 0.0 | 2.0 | 0.00 | 0.00 | 0.00 | 87 | 1013.5 |
| 20260510041158 | 46 | 304 | 0.0 | 2.0 | 0.00 | 0.00 | 0.00 | 87 | 1013.5 |
| 20260510040704 | 46 | 329 | 1.0 | 2.0 | 0.00 | 0.00 | 0.00 | 87 | 1013.5 |
| 20260510040158 | 46 | 308 | 1.0 | 4.0 | 0.00 | 0.00 | 0.00 | 87 | 1013.5 |
| 20260510035658 | 46 | 293 | 1.0 | 3.0 | 0.00 | 0.00 | 0.00 | 87 | 1013.5 |
| 20260510035207 | 46 | 311 | 1.0 | 3.0 | 0.00 | 0.00 | 0.00 | 87 | 1013.5 |
| 20260510034701 | 46 | 320 | 2.0 | 3.0 | 0.00 | 0.00 | 0.00 | 86 | 1013.5 |
| 20260510034201 | 46 | 296 | 1.0 | 3.0 | 0.00 | 0.00 | 0.00 | 86 | 1013.5 |
| 20260510033658 | 46 | 290 | 1.0 | 2.0 | 0.00 | 0.00 | 0.00 | 86 | 1013.5 |
| 20260510033158 | 46 | 295 | 1.0 | 2.0 | 0.00 | 0.00 | 0.00 | 87 | 1013.2 |
| 20260510032702 | 46 | 299 | 0.0 | 1.0 | 0.00 | 0.00 | 0.00 | 87 | 1013.2 |
| 20260510032201 | 46 | 297 | 0.0 | 1.0 | 0.00 | 0.00 | 0.00 | 87 | 1013.2 |
| 20260510031701 | 46 | 272 | 0.0 | 1.0 | 0.00 | 0.00 | 0.00 | 87 | 1013.5 |
| 20260510031158 | 46 | 300 | 0.0 | 1.0 | 0.00 | 0.00 | 0.00 | 87 | 1013.5 |
| 20260510030658 | 47 | 311 | 0.0 | 1.0 | 0.00 | 0.00 | 0.00 | 86 | 1013.5 |
| 20260510030204 | 47 | 298 | 0.0 | 2.0 | 0.00 | 0.00 | 0.00 | 87 | 1013.5 |
| 20260510025707 | 47 | 281 | 1.0 | 2.0 | 0.00 | 0.00 | 0.00 | 87 | 1013.5 |
| 20260510025204 | 47 | 265 | 0.0 | 1.0 | 0.00 | 0.00 | 0.00 | 86 | 1013.5 |
| 20260510024701 | 47 | 316 | 1.0 | 1.0 | 0.00 | 0.00 | 0.00 | 86 | 1013.5 |
| 20260510024158 | 47 | 331 | 0.0 | 2.0 | 0.00 | 0.00 | 0.00 | 86 | 1013.5 |
| 20260510023704 | 47 | 270 | 0.0 | 3.0 | 0.00 | 0.00 | 0.00 | 86 | 1013.5 |
| 20260510023204 | 47 | 298 | 1.0 | 3.0 | 0.00 | 0.00 | 0.00 | 85 | 1013.5 |
| 20260510022701 | 47 | 299 | 1.0 | 3.0 | 0.00 | 0.00 | 0.00 | 85 | 1013.9 |
| 20260510022158 | 47 | 321 | 1.0 | 3.0 | 0.00 | 0.00 | 0.00 | 85 | 1013.9 |
| 20260510021658 | 47 | 317 | 0.0 | 3.0 | 0.00 | 0.00 | 0.00 | 85 | 1013.9 |
| 20260510021158 | 47 | 298 | 1.0 | 4.0 | 0.00 | 0.00 | 0.00 | 85 | 1013.5 |
| 20260510020701 | 48 | 296 | 1.0 | 3.0 | 0.00 | 0.00 | 0.00 | 84 | 1013.9 |
| 20260510020204 | 48 | 323 | 2.0 | 3.0 | 0.00 | 0.00 | 0.00 | 84 | 1013.5 |
| 20260510015658 | 48 | 294 | 1.0 | 2.0 | 0.00 | 0.00 | 0.00 | 84 | 1013.5 |
| 20260510015158 | 48 | 276 | 0.0 | 2.0 | 0.00 | 0.00 | 0.00 | 83 | 1013.9 |
| 20260510014701 | 48 | 290 | 1.0 | 2.0 | 0.00 | 0.00 | 0.00 | 83 | 1013.9 |
| 20260510014201 | 49 | 324 | 1.0 | 2.0 | 0.00 | 0.00 | 0.00 | 83 | 1013.9 |
| 20260510013658 | 49 | 301 | 1.0 | 3.0 | 0.00 | 0.00 | 0.00 | 83 | 1013.9 |
| 20260510013204 | 49 | 312 | 1.0 | 1.0 | 0.00 | 0.00 | 0.00 | 83 | 1013.9 |
| 20260510012658 | 49 | 259 | 0.0 | 1.0 | 0.00 | 0.00 | 0.00 | 82 | 1013.9 |
| 20260510012158 | 49 | 325 | 0.0 | 1.0 | 0.00 | 0.00 | 0.00 | 82 | 1013.9 |
| 20260510011701 | 49 | 314 | 0.0 | 3.0 | 0.00 | 0.00 | 0.00 | 82 | 1013.9 |
| 20260510011158 | 49 | 326 | 1.0 | 3.0 | 0.00 | 0.00 | 0.00 | 81 | 1013.9 |
| 20260510010701 | 49 | 301 | 0.0 | 3.0 | 0.00 | 0.00 | 0.00 | 81 | 1014.2 |
| 20260510010158 | 50 | 219 | 1.0 | 2.0 | 0.00 | 0.00 | 0.00 | 81 | 1014.2 |
| 20260510005658 | 50 | 302 | 0.0 | 3.0 | 0.00 | 0.00 | 0.00 | 81 | 1013.9 |
| 20260510005158 | 50 | 295 | 1.0 | 3.0 | 0.00 | 0.00 | 0.00 | 80 | 1014.2 |
| 20260510004658 | 50 | 313 | 1.0 | 4.0 | 0.00 | 0.00 | 0.00 | 80 | 1014.2 |
| 20260510004201 | 51 | 286 | 1.0 | 2.0 | 0.00 | 0.00 | 0.00 | 79 | 1014.2 |
| 20260510003701 | 51 | 327 | 0.0 | 1.0 | 0.00 | 0.00 | 0.00 | 79 | 1014.2 |
| 20260510003201 | 51 | 320 | 0.0 | 2.0 | 0.00 | 0.00 | 0.00 | 79 | 1014.2 |
| 20260510002701 | 51 | 249 | 1.0 | 2.0 | 0.00 | 0.00 | 0.00 | 79 | 1014.6 |
| 20260510002201 | 51 | 323 | 1.0 | 2.0 | 0.00 | 0.00 | 0.00 | 78 | 1014.6 |
| 20260510001701 | 51 | 295 | 0.0 | 1.0 | 0.00 | 0.00 | 0.00 | 78 | 1014.6 |
| 20260510001201 | 51 | 312 | 0.0 | 2.0 | 0.00 | 0.00 | 0.00 | 78 | 1014.6 |
| 20260510000701 | 51 | 295 | 1.0 | 3.0 | 0.00 | 0.00 | 0.00 | 78 | 1014.6 |
| 20260510000158 | 51 | 249 | 0.0 | 2.0 | 0.00 | 0.00 | 0.00 | 79 | 1015.0 |
| 20260509235701 | 51 | 327 | 1.0 | 2.0 | 0.00 | 0.00 | 0.00 | 80 | 1015.0 |
| 20260509235201 | 51 | 325 | 0.0 | 1.0 | 0.00 | 0.00 | 0.00 | 80 | 1015.0 |
| 20260509234658 | 51 | 320 | 1.0 | 1.0 | 0.00 | 0.00 | 0.00 | 81 | 1015.0 |
| 20260509234158 | 51 | 301 | 0.0 | 1.0 | 0.00 | 0.00 | 0.00 | 81 | 1015.0 |
| 20260509233658 | 51 | 298 | 0.0 | 1.0 | 0.00 | 0.00 | 0.00 | 81 | 1015.0 |
| 20260509233158 | 51 | 322 | 0.0 | 1.0 | 0.00 | 0.00 | 0.00 | 81 | 1015.0 |
| 20260509232658 | 51 | 324 | 0.0 | 2.0 | 0.00 | 0.00 | 0.00 | 81 | 1015.3 |
| 20260509232158 | 51 | 279 | 0.0 | 2.0 | 0.00 | 0.00 | 0.00 | 80 | 1015.3 |
| 20260509231707 | 51 | 290 | 1.0 | 2.0 | 0.00 | 0.00 | 0.00 | 80 | 1015.3 |
| 20260509231158 | 51 | 315 | 1.0 | 2.0 | 0.00 | 0.00 | 0.00 | 80 | 1015.0 |
| 20260509230658 | 51 | 232 | 0.0 | 1.0 | 0.00 | 0.00 | 0.00 | 80 | 1015.0 |
| 20260509230201 | 51 | 316 | 0.0 | 2.0 | 0.00 | 0.00 | 0.00 | 80 | 1015.0 |
| 20260509225701 | 51 | 325 | 1.0 | 2.0 | 0.00 | 0.00 | 0.00 | 79 | 1015.3 |
| 20260509225158 | 51 | 281 | 0.0 | 3.0 | 0.00 | 0.00 | 0.00 | 78 | 1015.3 |
| 20260509224658 | 52 | 312 | 1.0 | 2.0 | 0.00 | 0.00 | 0.00 | 78 | 1015.3 |
| 20260509224201 | 52 | 312 | 1.0 | 3.0 | 0.00 | 0.00 | 0.00 | 77 | 1015.3 |
| 20260509223658 | 53 | 295 | 1.0 | 3.0 | 0.00 | 0.00 | 0.00 | 76 | 1015.3 |
| 20260509223158 | 53 | 314 | 1.0 | 2.0 | 0.00 | 0.00 | 0.00 | 75 | 1015.3 |
| 20260509222658 | 53 | 295 | 1.0 | 1.0 | 0.00 | 0.00 | 0.00 | 75 | 1015.3 |
| 20260509222158 | 54 | 304 | 0.0 | 3.0 | 0.00 | 0.00 | 0.00 | 74 | 1015.3 |
| 20260509221704 | 53 | 326 | 1.0 | 2.0 | 0.00 | 0.00 | 0.00 | 75 | 1015.3 |
| 20260509221158 | 54 | 309 | 0.0 | 1.0 | 0.00 | 0.00 | 0.00 | 75 | 1015.3 |
| 20260509220658 | 54 | 257 | 0.0 | 2.0 | 0.00 | 0.00 | 0.00 | 74 | 1015.3 |
| 20260509220204 | 54 | 291 | 1.0 | 2.0 | 0.00 | 0.00 | 0.00 | 74 | 1015.3 |
| 20260509215701 | 54 | 255 | 0.0 | 2.0 | 0.00 | 0.00 | 0.00 | 73 | 1015.3 |
| 20260509215158 | 55 | 242 | 0.0 | 2.0 | 0.00 | 0.00 | 0.00 | 72 | 1015.3 |
| 20260509214658 | 55 | 265 | 1.0 | 2.0 | 0.00 | 0.00 | 0.00 | 72 | 1015.3 |
| 20260509214158 | 55 | 305 | 0.0 | 1.0 | 0.00 | 0.00 | 0.00 | 72 | 1015.3 |
| 20260509213658 | 55 | 267 | 0.0 | 3.0 | 0.00 | 0.00 | 0.00 | 72 | 1015.3 |
| 20260509213158 | 55 | 326 | 0.0 | 2.0 | 0.00 | 0.00 | 0.00 | 72 | 1015.3 |
| 20260509212658 | 55 | 272 | 0.0 | 3.0 | 0.00 | 0.00 | 0.00 | 71 | 1015.6 |
| 20260509212158 | 56 | 286 | 1.0 | 2.0 | 0.00 | 0.00 | 0.00 | 71 | 1015.3 |
| 20260509211658 | 56 | 302 | 1.0 | 1.0 | 0.00 | 0.00 | 0.00 | 71 | 1015.3 |
| 20260509211158 | 56 | 298 | 0.0 | 1.0 | 0.00 | 0.00 | 0.00 | 70 | 1015.3 |
| 20260509210701 | 56 | 310 | 0.0 | 1.0 | 0.00 | 0.00 | 0.00 | 70 | 1015.3 |
| 20260509210158 | 57 | 289 | 0.0 | 1.0 | 0.00 | 0.00 | 0.00 | 69 | 1015.3 |
| 20260509205658 | 57 | 232 | 0.0 | 1.0 | 0.00 | 0.00 | 0.00 | 68 | 1015.6 |
| 20260509205158 | 57 | 266 | 0.0 | 2.0 | 0.00 | 0.00 | 0.00 | 68 | 1015.6 |
| 20260509204658 | 58 | 263 | 1.0 | 3.0 | 0.00 | 0.00 | 0.00 | 67 | 1015.6 |
| 20260509204158 | 58 | 232 | 0.0 | 1.0 | 0.00 | 0.00 | 0.00 | 66 | 1015.6 |
| 20260509203658 | 58 | 279 | 0.0 | 2.0 | 0.00 | 0.00 | 0.00 | 65 | 1015.3 |
| 20260509203201 | 58 | 316 | 1.0 | 2.0 | 0.00 | 0.00 | 0.00 | 64 | 1015.6 |
| 20260509202701 | 59 | 201 | 0.0 | 2.0 | 0.00 | 0.00 | 0.00 | 63 | 1015.6 |
| 20260509202158 | 59 | 333 | 0.0 | 1.0 | 0.00 | 0.00 | 0.00 | 63 | 1015.6 |
| 20260509201701 | 59 | 346 | 0.0 | 1.0 | 0.00 | 0.00 | 0.00 | 63 | 1015.6 |
| 20260509201158 | 59 | 294 | 0.0 | 1.0 | 0.00 | 0.00 | 0.00 | 62 | 1015.6 |
| 20260509200658 | 59 | 225 | 0.0 | 2.0 | 0.00 | 0.00 | 0.00 | 61 | 1015.6 |
| 20260509200201 | 60 | 233 | 0.0 | 2.0 | 0.00 | 0.00 | 0.00 | 61 | 1015.6 |
| 20260509195701 | 60 | 261 | 1.0 | 2.0 | 0.00 | 0.00 | 0.00 | 60 | 1015.3 |
| 20260509195201 | 60 | 311 | 1.0 | 3.0 | 0.00 | 0.00 | 0.00 | 59 | 1015.3 |
| 20260509194704 | 61 | 335 | 0.0 | 3.0 | 0.00 | 0.00 | 0.00 | 58 | 1015.3 |
| 20260509194158 | 61 | 340 | 1.0 | 3.0 | 0.00 | 0.00 | 0.00 | 57 | 1015.3 |
| 20260509193704 | 61 | 1 | 1.0 | 3.0 | 0.00 | 0.00 | 0.00 | 57 | 1015.3 |
| 20260509193158 | 61 | 0 | 2.0 | 4.0 | 0.00 | 0.00 | 0.00 | 57 | 1015.3 |
| 20260509192704 | 61 | 358 | 2.0 | 3.0 | 0.00 | 0.00 | 0.00 | 56 | 1015.3 |
| 20260509192201 | 62 | 2 | 0.0 | 3.0 | 0.00 | 0.00 | 0.00 | 56 | 1015.3 |
| 20260509191707 | 62 | 353 | 0.0 | 3.0 | 0.00 | 0.00 | 0.00 | 56 | 1015.3 |
| 20260509191201 | 62 | 344 | 1.0 | 5.0 | 0.00 | 0.00 | 0.00 | 55 | 1015.3 |
| 20260509190658 | 62 | 330 | 2.0 | 5.0 | 0.00 | 0.00 | 0.00 | 55 | 1015.0 |
| 20260509190158 | 63 | 342 | 1.0 | 6.0 | 0.00 | 0.00 | 0.00 | 55 | 1015.0 |
| 20260509185658 | 63 | 14 | 1.0 | 4.0 | 0.00 | 0.00 | 0.00 | 54 | 1015.0 |
| 20260509185158 | 63 | 346 | 2.0 | 4.0 | 0.00 | 0.00 | 0.00 | 54 | 1015.0 |
| 20260509184658 | 63 | 10 | 2.0 | 4.0 | 0.00 | 0.00 | 0.00 | 53 | 1015.0 |
| 20260509184201 | 64 | 18 | 1.0 | 5.0 | 0.00 | 0.00 | 0.00 | 52 | 1015.0 |
| 20260509183704 | 64 | 348 | 2.0 | 5.0 | 0.00 | 0.00 | 0.00 | 51 | 1015.0 |
| 20260509183158 | 64 | 17 | 2.0 | 5.0 | 0.00 | 0.00 | 0.00 | 51 | 1015.0 |
| 20260509182658 | 64 | 335 | 2.0 | 5.0 | 0.00 | 0.00 | 0.00 | 50 | 1015.0 |
| 20260509182201 | 65 | 349 | 1.0 | 5.0 | 0.00 | 0.00 | 0.00 | 49 | 1015.0 |
| 20260509181658 | 65 | 4 | 3.0 | 5.0 | 0.00 | 0.00 | 0.00 | 48 | 1015.0 |
| 20260509181158 | 66 | 353 | 1.0 | 5.0 | 0.00 | 0.00 | 0.00 | 46 | 1015.0 |
| 20260509180658 | 66 | 322 | 2.0 | 4.0 | 0.00 | 0.00 | 0.00 | 45 | 1015.0 |
| 20260509180201 | 66 | 350 | 2.0 | 4.0 | 0.00 | 0.00 | 0.00 | 45 | 1015.0 |
| 20260509175701 | 67 | 331 | 2.0 | 4.0 | 0.00 | 0.00 | 0.00 | 44 | 1015.0 |
| 20260509175201 | 67 | 340 | 3.0 | 5.0 | 0.00 | 0.00 | 0.00 | 43 | 1015.0 |
| 20260509174704 | 67 | 19 | 1.0 | 4.0 | 0.00 | 0.00 | 0.00 | 43 | 1015.0 |
| 20260509174158 | 67 | 312 | 1.0 | 4.0 | 0.00 | 0.00 | 0.00 | 42 | 1015.0 |
| 20260509173701 | 67 | 316 | 1.0 | 6.0 | 0.00 | 0.00 | 0.00 | 41 | 1015.0 |
| 20260509173158 | 68 | 332 | 2.0 | 5.0 | 0.00 | 0.00 | 0.00 | 41 | 1015.0 |
| 20260509172658 | 67 | 352 | 2.0 | 6.0 | 0.00 | 0.00 | 0.00 | 40 | 1015.0 |
| 20260509172201 | 68 | 330 | 3.0 | 6.0 | 0.00 | 0.00 | 0.00 | 39 | 1015.0 |
| 20260509171701 | 68 | 353 | 1.0 | 6.0 | 0.00 | 0.00 | 0.00 | 39 | 1015.0 |
| 20260509171201 | 68 | 322 | 1.0 | 7.0 | 0.00 | 0.00 | 0.00 | 39 | 1015.0 |
| 20260509170658 | 68 | 20 | 1.0 | 5.0 | 0.00 | 0.00 | 0.00 | 38 | 1015.0 |
| 20260509170204 | 68 | 324 | 1.0 | 5.0 | 0.00 | 0.00 | 0.00 | 39 | 1015.0 |
| 20260509165659 | 69 | 311 | 1.0 | 3.0 | 0.00 | 0.00 | 0.00 | 38 | 1015.0 |
| 20260509165158 | 68 | 343 | 0.0 | 6.0 | 0.00 | 0.00 | 0.00 | 39 | 1015.0 |
| 20260509164658 | 69 | 16 | 2.0 | 5.0 | 0.00 | 0.00 | 0.00 | 39 | 1015.0 |
| 20260509164158 | 68 | 327 | 1.0 | 6.0 | 0.00 | 0.00 | 0.00 | 39 | 1015.0 |
| 20260509163658 | 68 | 341 | 3.0 | 6.0 | 0.00 | 0.00 | 0.00 | 38 | 1015.0 |
| 20260509163201 | 69 | 347 | 2.0 | 5.0 | 0.00 | 0.00 | 0.00 | 38 | 1015.0 |
| 20260509162658 | 69 | 295 | 0.0 | 5.0 | 0.00 | 0.00 | 0.00 | 39 | 1015.0 |
| 20260509162158 | 69 | 330 | 3.0 | 5.0 | 0.00 | 0.00 | 0.00 | 38 | 1015.0 |
| 20260509161701 | 69 | 287 | 0.0 | 3.0 | 0.00 | 0.00 | 0.00 | 39 | 1015.0 |
| 20260509161158 | 69 | 338 | 1.0 | 4.0 | 0.00 | 0.00 | 0.00 | 39 | 1015.3 |
| 20260509160658 | 68 | 300 | 0.0 | 5.0 | 0.00 | 0.00 | 0.00 | 41 | 1015.3 |
| 20260509160201 | 67 | 324 | 2.0 | 6.0 | 0.00 | 0.00 | 0.00 | 41 | 1015.3 |
| 20260509155701 | 67 | 333 | 3.0 | 9.0 | 0.00 | 0.00 | 0.00 | 42 | 1015.3 |
| 20260509155201 | 68 | 9 | 2.0 | 6.0 | 0.00 | 0.00 | 0.00 | 41 | 1015.3 |
| 20260509154658 | 68 | 325 | 1.0 | 6.0 | 0.00 | 0.00 | 0.00 | 41 | 1015.3 |
| 20260509154158 | 68 | 354 | 3.0 | 7.0 | 0.00 | 0.00 | 0.00 | 39 | 1015.3 |
| 20260509153658 | 69 | 99 | 2.0 | 7.0 | 0.00 | 0.00 | 0.00 | 39 | 1015.6 |
| 20260509153158 | 69 | 21 | 2.0 | 7.0 | 0.00 | 0.00 | 0.00 | 38 | 1015.6 |
| 20260509152658 | 68 | 356 | 3.0 | 7.0 | 0.00 | 0.00 | 0.00 | 39 | 1015.6 |
| 20260509152158 | 68 | 29 | 3.0 | 9.0 | 0.00 | 0.00 | 0.00 | 40 | 1015.6 |
| 20260509151701 | 69 | 4 | 3.0 | 8.0 | 0.00 | 0.00 | 0.00 | 38 | 1015.6 |
| 20260509151158 | 69 | 339 | 4.0 | 9.0 | 0.00 | 0.00 | 0.00 | 39 | 1015.6 |
| 20260509150658 | 69 | 340 | 3.0 | 9.0 | 0.00 | 0.00 | 0.00 | 39 | 1015.6 |
| 20260509150158 | 69 | 333 | 2.0 | 6.0 | 0.00 | 0.00 | 0.00 | 40 | 1015.6 |
| 20260509145658 | 70 | 338 | 3.0 | 7.0 | 0.00 | 0.00 | 0.00 | 38 | 1015.6 |
| 20260509145158 | 68 | 29 | 2.0 | 8.0 | 0.00 | 0.00 | 0.00 | 39 | 1015.6 |
| 20260509144701 | 70 | 9 | 1.0 | 5.0 | 0.00 | 0.00 | 0.00 | 37 | 1015.6 |
| 20260509144207 | 70 | 332 | 1.0 | 8.0 | 0.00 | 0.00 | 0.00 | 38 | 1015.6 |
| 20260509143701 | 70 | 2 | 3.0 | 6.0 | 0.00 | 0.00 | 0.00 | 38 | 1016.0 |
| 20260509143201 | 70 | 15 | 3.0 | 7.0 | 0.00 | 0.00 | 0.00 | 38 | 1016.0 |
| 20260509142704 | 69 | 67 | 2.0 | 6.0 | 0.00 | 0.00 | 0.00 | 39 | 1016.0 |
| 20260509142201 | 70 | 48 | 3.0 | 6.0 | 0.00 | 0.00 | 0.00 | 38 | 1016.0 |
| 20260509141701 | 71 | 316 | 2.0 | 6.0 | 0.00 | 0.00 | 0.00 | 36 | 1016.0 |
| 20260509141158 | 73 | 218 | 1.0 | 6.0 | 0.00 | 0.00 | 0.00 | 37 | 1016.0 |
| 20260509140658 | 69 | 136 | 2.0 | 5.0 | 0.00 | 0.00 | 0.00 | 39 | 1016.0 |
| 20260509140204 | 69 | 274 | 1.0 | 6.0 | 0.00 | 0.00 | 0.00 | 38 | 1016.3 |
| 20260509135701 | 68 | 45 | 1.0 | 7.0 | 0.00 | 0.00 | 0.00 | 40 | 1016.3 |
| 20260509135201 | 68 | 334 | 3.0 | 8.0 | 0.00 | 0.00 | 0.00 | 39 | 1016.3 |
| 20260509134658 | 70 | 27 | 1.0 | 5.0 | 0.00 | 0.00 | 0.00 | 38 | 1016.3 |
| 20260509134158 | 69 | 327 | 1.0 | 4.0 | 0.00 | 0.00 | 0.00 | 41 | 1016.3 |
| 20260509133658 | 68 | 1 | 1.0 | 5.0 | 0.00 | 0.00 | 0.00 | 41 | 1016.3 |
| 20260509133202 | 68 | 151 | 2.0 | 7.0 | 0.00 | 0.00 | 0.00 | 41 | 1016.7 |
| 20260509132658 | 67 | 7 | 2.0 | 4.0 | 0.00 | 0.00 | 0.00 | 41 | 1016.7 |
| 20260509132201 | 67 | 327 | 1.0 | 7.0 | 0.00 | 0.00 | 0.00 | 42 | 1016.7 |
| 20260509131701 | 68 | 14 | 3.0 | 6.0 | 0.00 | 0.00 | 0.00 | 40 | 1016.7 |
| 20260509131201 | 69 | 326 | 2.0 | 5.0 | 0.00 | 0.00 | 0.00 | 39 | 1016.7 |
| 20260509130701 | 69 | 299 | 1.0 | 5.0 | 0.00 | 0.00 | 0.00 | 41 | 1016.7 |
| 20260509130158 | 68 | 250 | 1.0 | 5.0 | 0.00 | 0.00 | 0.00 | 40 | 1016.7 |
| 20260509125658 | 68 | 318 | 3.0 | 6.0 | 0.00 | 0.00 | 0.00 | 40 | 1016.7 |
| 20260509125158 | 68 | 321 | 3.0 | 6.0 | 0.00 | 0.00 | 0.00 | 41 | 1016.7 |
| 20260509124701 | 68 | 331 | 3.0 | 6.0 | 0.00 | 0.00 | 0.00 | 40 | 1016.7 |
| 20260509124158 | 67 | 333 | 3.0 | 9.0 | 0.00 | 0.00 | 0.00 | 40 | 1017.1 |
| 20260509123658 | 68 | 346 | 1.0 | 5.0 | 0.00 | 0.00 | 0.00 | 40 | 1017.1 |
| 20260509123158 | 68 | 351 | 1.0 | 5.0 | 0.00 | 0.00 | 0.00 | 41 | 1017.1 |
| 20260509122658 | 68 | 3 | 1.0 | 5.0 | 0.00 | 0.00 | 0.00 | 39 | 1017.1 |
| 20260509122158 | 71 | 79 | 1.0 | 6.0 | 0.00 | 0.00 | 0.00 | 36 | 1017.1 |
| 20260509121658 | 71 | 36 | 2.0 | 6.0 | 0.00 | 0.00 | 0.00 | 36 | 1017.1 |
| 20260509121201 | 71 | 143 | 0.0 | 5.0 | 0.00 | 0.00 | 0.00 | 37 | 1017.1 |
| 20260509120701 | 70 | 118 | 2.0 | 6.0 | 0.00 | 0.00 | 0.00 | 38 | 1017.4 |
| 20260509120158 | 70 | 111 | 3.0 | 6.0 | 0.00 | 0.00 | 0.00 | 38 | 1017.4 |
| 20260509115658 | 69 | 191 | 0.0 | 3.0 | 0.00 | 0.00 | 0.00 | 39 | 1017.4 |
| 20260509115204 | 68 | 347 | 1.0 | 3.0 | 0.00 | 0.00 | 0.00 | 40 | 1017.4 |
| 20260509114701 | 68 | 124 | 1.0 | 4.0 | 0.00 | 0.00 | 0.00 | 42 | 1017.4 |
| 20260509114201 | 67 | 180 | 1.0 | 2.0 | 0.00 | 0.00 | 0.00 | 42 | 1017.4 |
| 20260509113658 | 66 | 335 | 0.0 | 4.0 | 0.00 | 0.00 | 0.00 | 42 | 1017.4 |
| 20260509113201 | 67 | 318 | 2.0 | 4.0 | 0.00 | 0.00 | 0.00 | 41 | 1017.4 |
| 20260509112658 | 67 | 184 | 0.0 | 3.0 | 0.00 | 0.00 | 0.00 | 44 | 1017.4 |
| 20260509112158 | 65 | 340 | 1.0 | 5.0 | 0.00 | 0.00 | 0.00 | 43 | 1017.7 |
| 20260509111658 | 67 | 256 | 1.0 | 4.0 | 0.00 | 0.00 | 0.00 | 42 | 1017.7 |
| 20260509111158 | 68 | 103 | 1.0 | 3.0 | 0.00 | 0.00 | 0.00 | 41 | 1017.7 |
| 20260509110707 | 68 | 63 | 1.0 | 5.0 | 0.00 | 0.00 | 0.00 | 40 | 1017.7 |
| 20260509110158 | 67 | 118 | 1.0 | 5.0 | 0.00 | 0.00 | 0.00 | 42 | 1017.7 |
| 20260509105701 | 67 | 173 | 2.0 | 4.0 | 0.00 | 0.00 | 0.00 | 41 | 1017.7 |
| 20260509105201 | 67 | 178 | 2.0 | 6.0 | 0.00 | 0.00 | 0.00 | 42 | 1017.7 |
| 20260509104701 | 66 | 130 | 1.0 | 6.0 | 0.00 | 0.00 | 0.00 | 44 | 1017.7 |
| 20260509104158 | 66 | 337 | 1.0 | 3.0 | 0.00 | 0.00 | 0.00 | 42 | 1017.7 |
| 20260509103701 | 67 | 266 | 0.0 | 3.0 | 0.00 | 0.00 | 0.00 | 42 | 1017.7 |
| 20260509103201 | 67 | 151 | 1.0 | 5.0 | 0.00 | 0.00 | 0.00 | 42 | 1017.7 |
| 20260509102658 | 67 | 108 | 2.0 | 4.0 | 0.00 | 0.00 | 0.00 | 40 | 1017.7 |
| 20260509102158 | 67 | 87 | 1.0 | 4.0 | 0.00 | 0.00 | 0.00 | 40 | 1018.1 |
| 20260509101658 | 66 | 0 | 1.0 | 8.0 | 0.00 | 0.00 | 0.00 | 40 | 1018.1 |
| 20260509101158 | 68 | 122 | 4.0 | 8.0 | 0.00 | 0.00 | 0.00 | 38 | 1018.1 |
| 20260509100701 | 68 | 120 | 2.0 | 8.0 | 0.00 | 0.00 | 0.00 | 38 | 1018.1 |
| 20260509100204 | 67 | 209 | 2.0 | 6.0 | 0.00 | 0.00 | 0.00 | 41 | 1018.1 |
| 20260509095658 | 66 | 179 | 2.0 | 6.0 | 0.00 | 0.00 | 0.00 | 41 | 1018.1 |
| 20260509095201 | 65 | 132 | 4.0 | 6.0 | 0.00 | 0.00 | 0.00 | 42 | 1018.1 |
| 20260509094707 | 65 | 76 | 0.0 | 5.0 | 0.00 | 0.00 | 0.00 | 46 | 1018.1 |
| 20260509094158 | 66 | 159 | 3.0 | 6.0 | 0.00 | 0.00 | 0.00 | 42 | 1018.1 |
| 20260509093701 | 67 | 98 | 1.0 | 4.0 | 0.00 | 0.00 | 0.00 | 44 | 1018.4 |
| 20260509093201 | 66 | 132 | 0.0 | 5.0 | 0.00 | 0.00 | 0.00 | 45 | 1018.1 |
| 20260509092704 | 64 | 110 | 3.0 | 6.0 | 0.00 | 0.00 | 0.00 | 47 | 1018.1 |
| 20260509092204 | 65 | 76 | 1.0 | 8.0 | 0.00 | 0.00 | 0.00 | 45 | 1018.1 |
| 20260509091707 | 63 | 176 | 1.0 | 5.0 | 0.00 | 0.00 | 0.00 | 51 | 1018.1 |
| 20260509091158 | 62 | 188 | 2.0 | 8.0 | 0.00 | 0.00 | 0.00 | 49 | 1018.4 |
| 20260509090701 | 64 | 139 | 3.0 | 8.0 | 0.00 | 0.00 | 0.00 | 49 | 1018.4 |
| 20260509090158 | 64 | 273 | 2.0 | 4.0 | 0.00 | 0.00 | 0.00 | 49 | 1018.4 |